Regional Weather Roundup
Issued by NWS

Home | Current Version | Previous Version | Text Only | Print | Product List | Glossary Off
Versions: 1 2 3 4 5 6 7 8 9 10 11 12 13 14 15 16 17 18 19 20 21 22 23 24 25 26 27 28 29 30 31 32 33 34 35 36 37 38 39 40 41 42 43 44 45 46 47 48 49 50

000
ASUS45 KABQ 251310
RWRNM
NEW MEXICO REGIONAL WEATHER ROUNDUP
NATIONAL WEATHER SERVICE ALBUQUERQUE NM
700 AM MDT TUE APR 25 2017

NOTE: "FAIR" MEANS FEW OR NO CLOUDS BELOW 12,000 FEET AGL WITH NO
       SIGNIFICANT WEATHER OR OBSTRUCTIONS TO VISION.

      THIS PRODUCT IS RELEASED AS TWO VERSIONS.  ONE VERSION NEAR
      THE TOP OF THE HOUR CONTAINING PRELIMINARY DATA FROM ALBUQUERQUE
      AND OTHER STATIONS.  A FINAL VERSION WITH ADDITIONAL DATA IS
      ISSUED ABOUT 10 MINUTES AFTER THE HOUR.

NMZ501-503-504-510>518-251400-
NORTHWEST PLATEAU/NORTHCENTRAL MOUNTAINS

CITY           SKY/WX    TMP DP  RH WIND       PRES   REMARKS
FARMINGTON     CLOUDY    50  28  42 W13       29.65R
LOS ALAMOS     CLOUDY    46  30  53 W12G21    29.71F
SANTA FE       CLOUDY    49  35  58 W20G31    29.70R
TAOS             N/A     46  19  34 SW8       29.68S
ANGEL FIRE     MOCLDY    42  24  49 SW13G24   29.70R

$$
NMZ402-403-502-505>509-251400-
WESTCENTRAL MOUNTAINS/SOUTHWEST MOUNTAINS

CITY           SKY/WX    TMP DP  RH WIND       PRES   REMARKS
GALLUP         RAIN      43  40  89 SW7       29.76F
GRANTS         CLOUDY    44  35  70 W12       29.78S
SILVER CITY    FAIR      55  15  20 W9        29.76S

$$
NMZ407-409-411-412-251400-
SOUTHERN DESERTS

CITY           SKY/WX    TMP DP  RH WIND       PRES   REMARKS
DEMING         FAIR      63  22  20 W21G28    29.73R
LAS CRUCES     FAIR      64  26  23 SW15      29.73S
HOLLOMAN AFB   MOCLDY    69  19  14 SW17      29.73R
ALAMOGORDO     FAIR      66  21  18 S5        29.71R
T OR C         FAIR      59  18  20 SW6       29.68R

$$
NMZ519>523-251400-
CENTRAL VALLEYS/CENTRAL HIGHLANDS

CITY           SKY/WX    TMP DP  RH WIND       PRES   REMARKS
ALBUQUERQUE    CLOUDY    57  32  38 NW17G23   29.71R
DOUBLE EAGLE   LGT RAIN  52  34  50 NW17G25   29.71R
MORIARTY ARPT  CLOUDY    55  28  35 W17G23    29.72R
CLINES CORNERS FAIR      51  23  33 W30G40    29.68F
BELEN          CLOUDY    57  29  34 W21G29    29.70R
SOCORRO        CLOUDY    64  21  19 W7        29.68R

$$
NMZ524>526-539-540-251400-
SOUTHCENTRAL MOUNTAINS

CITY           SKY/WX    TMP DP  RH WIND       PRES   REMARKS
RUIDOSO        FAIR      55  16  21 SW22G30   29.71S

$$
NMZ527>531-251400-
NORTHEAST HIGHLANDS/NORTHEAST PLAINS

CITY           SKY/WX    TMP DP  RH WIND       PRES   REMARKS
LAS VEGAS      FAIR      49  28  44 W16       29.64R
RATON          FAIR      47  26  44 N5        29.56S
CLAYTON        FAIR      61  27  27 W14       29.50S

$$
NMZ532>537-251400-
EASTCENTRAL PLAINS

CITY           SKY/WX    TMP DP  RH WIND       PRES   REMARKS
SANTA ROSA     FAIR      58  24  26 W9        29.59R
TUCUMCARI      FAIR      66  25  21 W20       29.49R
CANNON AFB     FAIR      59  22  24 W10       29.56R
CLOVIS AIRPORT FAIR      57  25  28 W9        29.57R

$$
NMZ028-029-538-251400-
SOUTHEAST PLAINS

CITY           SKY/WX    TMP DP  RH WIND       PRES   REMARKS
ROSWELL        FAIR      65  22  19 S9        29.56
ARTESIA        FAIR      72  25  17 SW26G33   29.55F
CARLSBAD       FAIR      74  19  12 W10       29.58R
HOBBS          CLEAR     66  21  18 SW13      29.61R


$$




USA.gov is the U.S. government's official web portal to all federal, state and local government web resources and services.